Overview Statistics Trail Chart Weather Telemetry Raw packets
 

This is the latest recevied weather packets stored in our database for station/object KD7CIH. If no packets are shown the sender has not sent any weather packets the latest 10 day(s).

<< 79 80 81 82 83 84 85 >>
Time Temp. Humidity Pressure Rain* Wind** Luminosity Snow
1788125973 21.67° C 42% 1014.3 hPa 0 mm - - -
1788125677 21.67° C 42% 1014.5 hPa 0 mm - - -
1788125500 21.11° C 42% 1014.5 hPa 0 mm - - -
1788125074 21.11° C 42% 1014.5 hPa 0 mm - - -
1788124773 21.67° C 42% 1014.6 hPa 0 mm - - -
1788124475 21.67° C 40% 1014.5 hPa 0 mm - - -
1788124173 21.11° C 40% 1014.5 hPa 0 mm - - -
1788123873 21.11° C 40% 1014.6 hPa 0 mm - - -
1788123575 21.11° C 41% 1014.7 hPa 0 mm - - -
1788123275 21.11° C 42% 1014.7 hPa 0 mm - - -
1788122973 21.11° C 44% 1014.7 hPa 0 mm - - -
1788122674 21.11° C 44% 1014.8 hPa 0 mm - - -
1788122373 21.11° C 46% 1015.1 hPa 0 mm - - -
1788122075 20.56° C 44% 1014.9 hPa 0 mm - - -
1788121773 20.56° C 46% 1015.1 hPa 0 mm - - -
1788121473 20.56° C 47% 1014.9 hPa 0 mm - - -
1788121173 20° C 47% 1015.1 hPa 0 mm - - -
1788120874 20° C 50% 1015.2 hPa 0 mm - - -
1788120700 20° C 49% 1015.2 hPa 0 mm - - -
1788120273 19.44° C 53% 1015.2 hPa 0 mm - - -
1788119975 19.44° C 52% 1015.1 hPa 0 mm - - -
1788119673 18.89° C 52% 1015.2 hPa 0 mm - - -
1788119374 19.44° C 53% 1015.3 hPa 0 mm - - -
1788119074 19.44° C 51% 1015.4 hPa 0 mm - - -
1788118775 19.44° C 52% 1015.5 hPa 0 mm - - -

* Rain latest hour (hover to see other rain measurements)
** Current wind speed in m/s (hover to see current wind gust speed)